Regional Weather Roundup
Issued by NWS

Home | Current Version | Previous Version | Graphics & Text | Print | Product List | Glossary On
Versions: 1 2 3 4 5 6 7 8 9 10 11 12 13 14 15 16 17 18 19 20 21 22 23 24 25 26 27 28 29 30 31 32 33 34 35 36 37 38 39 40 41 42 43 44 45 46 47 48 49 50
000
ASUS43 KDTX 281301
RWRMI
MICHIGAN HOURLY REGIONAL WEATHER ROUNDUP
NATIONAL WEATHER SERVICE DETROIT/PONTIAC MI
900 AM EDT WED JUN 28 2017

NOTE: "FAIR" INDICATES FEW OR NO CLOUDS BELOW 12,000 FEET WITH NO
SIGNIFICANT WEATHER AND/OR OBSTRUCTION TO VISIBILITY.

MIZ047>049-052>055-059>063-066>070-074>076-081>083-281400-
SOUTHEAST LOWER MICHIGAN

CITY           SKY/WX    TMP DP  RH WIND       PRES   REMARKS
ADRIAN         SUNNY     64  50  60 SW7       30.12F
ALMA           SUNNY     62  51  67 SW7G16    30.06F
ANN ARBOR      SUNNY     64  53  67 SE5       30.10F
BAD AXE        PTSUNNY   62  51  65 SW7       30.08F
CARO           CLOUDY    61  54  76 S5        30.07F
DETROIT CITY   SUNNY     66  48  52 SW7       30.11F
DETROIT        MOSUNNY   66  49  54 SW9       30.11F
FLINT          SUNNY     65  49  56 SW9       30.08F
GROSSE ILE     SUNNY     65  49  56 S3        30.10F
HILLSDALE      SUNNY     63  48  59 S6        30.10F
HOWELL         MOSUNNY   64  46  52 SW7       30.09S

CITY           SKY/WX    TMP DP  RH WIND       PRES   REMARKS
JACKSON        SUNNY     65  49  56 S9        30.09F
LAMBERTVILLE   SUNNY     65  52  62 S5        30.12F
LANSING        SUNNY     61  48  62 S9        30.07F
LAPEER         NOT AVBL
MASON          SUNNY     64  50  60 CALM      30.08F
MONROE         SUNNY     65  50  58 SW6       30.12S
MT. CLEMENS    MOSUNNY   68  48  48 SW10      30.09S
PONTIAC        PTSUNNY   65  48  54 SW8       30.09F
PORT HOPE        N/A     65  51  60 SW8       30.05R
PORT HURON     SUNNY     63  50  63 SW3       30.11S
TRI CITIES     CLOUDY    63  52  67 SW9       30.06F
MIDLAND        FAIR      63  50  62 SW7       30.05F
TROY           SUNNY     65  44  47 SW6       30.11F
SAGINAW HB     CLOUDY    63  46  55 SW10      30.05F
$$
MIZ043>046-050>051-056>058-064>065-071>073-077>080-281400-
SOUTHWEST LOWER MICHIGAN

CITY           SKY/WX    TMP DP  RH WIND       PRES   REMARKS
BATTLE CREEK   SUNNY     65  49  56 S10       30.08F
BENTON HARBOR  CLOUDY    67  48  50 MISG      30.04R
BIG RAPIDS     SUNNY     61  50  66 S6        30.02F
COLDWATER      SUNNY     65  49  56 S6        30.09F
FREMONT        FAIR      63  52  67 S6        30.02R
HOLLAND        CLOUDY    65  50  58 S12       30.05R
GRAND RAPIDS   CLOUDY    65  50  58 S14       30.04F
KALAMAZOO      MOSUNNY   66  48  52 S12       30.08S
LUDINGTON      CLOUDY    65  55  69 S10       29.99R
MARSHALL       SUNNY     65  49  58 S5        30.07F
MOUNT PLEASANT SUNNY     65  48  53 S7        30.03F
MUSKEGON       CLOUDY    68  54  60 S17       30.03R
SOUTH HAVEN    CLOUDY    65  52  62 S9        30.05R
$$
MIZ016>042-281400-
NORTHERN LOWER MICHIGAN

CITY           SKY/WX    TMP DP  RH WIND       PRES   REMARKS
ALPENA         SUNNY     64  53  67 SW3       30.02S
BELLAIRE       CLOUDY    63  51  65 CALM      29.98F
CADILLAC       SUNNY     62  51  68 SW12      30.00F
CHARLEVOIX     CLOUDY    64  53  68 S7        29.99F
FRANKFORT      SUNNY     65  52  62 S8        29.96R
GAYLORD        CLOUDY    62  48  60 SW9       30.01F
GRAYLING       CLOUDY    60  50  70 SW5       30.02F
HARBOR SPRINGS MOSUNNY   64  52  66 E3        29.97F
HOUGHTON LAKE  SUNNY     62  50  64 SW7       30.03F
MANISTEE       CLOUDY    64  55  72 S7G16     29.97F
OSCODA         SUNNY     63  51  64 SW10      30.04S
PELLSTON       CLOUDY    65  50  58 SW7       29.97F
ROGERS CITY    MOSUNNY   65  52  60 SW6       30.01S
TRAVERSE CITY  CLOUDY    65  52  62 VRB3      29.96F
$$
MIZ007>008-015-281400-
EASTERN UPPER MICHIGAN

CITY           SKY/WX    TMP DP  RH WIND       PRES   REMARKS
KINROSS        PTSUNNY   65  55  70 SW9       29.96F
MACKINAC ISLAN MOSUNNY   64  53  68 SW7       29.96F
NEWBERRY       PTSUNNY   59  57  91 S5        29.92F
S. S. MARIE    MOSUNNY   63  55  75 SW6       29.94F
MUNISING         N/A     63  51  65 SW7       29.87F
$$
MIZ004>006-011>014-085-281400-
CENTRAL UPPER MICHIGAN

CITY           SKY/WX    TMP DP  RH WIND       PRES   REMARKS
MANISTIQUE     CLOUDY    59  56  89 S6        29.92F
ESCANABA       MOSUNNY   64  56  75 S7        29.89F
MENOMINEE      CLOUDY    66  51  58 S10G16    29.91R
SAWYER-GWINN   SUNNY     61  50  67 S9        29.87F
$$
MIZ001>003-009>011-084-281400-
WESTERN UPPER MICHIGAN

CITY           SKY/WX    TMP DP  RH WIND       PRES   REMARKS
IRON MOUNTAIN  CLOUDY    60  49  66 SE6       29.87R
HOUGHTON       CLOUDY    62  49  62 S7        29.81F
COPPER HARBOR    N/A     66  48  52 W8        29.80F
IRONWOOD       CLOUDY    61  49  64 S14G20    29.75F
$$

ABBREVIATIONS USED IN REMARKS
   TC - TEMPERATURE IN CELSIUS
  WCI - WIND CHILL INDEX
   HX - HEAT INDEX
  VSB - VISIBILITY





USA.gov is the U.S. government's official web portal to all federal, state and local government web resources and services.